| time (UTC) | temp C | wind direction | speed KPH | gust KPH | rain 1hr cm | rain 24hr cm | rain mn cm | humidity % | barometer mb |
| 20260505040957 | 13 | 140 | 4.8 | 12.9 | 0.00 | 0.00 | 0.00 | 82 | 1015.1 |
| 20260505040002 | 13 | 145 | 3.2 | 14.5 | 0.00 | 0.00 | 0.00 | 84 | 1015.2 |
| 20260505034957 | 13 | 152 | 4.8 | 12.9 | 0.00 | 0.00 | 0.00 | 82 | 1015.0 |
| 20260505034000 | 14 | 144 | 6.4 | 14.5 | 0.00 | 0.00 | 0.00 | 78 | 1014.9 |
| 20260505032957 | 15 | 145 | 6.4 | 14.5 | 0.00 | 0.00 | 0.00 | 74 | 1014.9 |
| 20260505030957 | 16 | 132 | 4.8 | 12.9 | 0.00 | 0.00 | 0.00 | 66 | 1015.1 |
| 20260505030002 | 16 | 194 | 6.4 | 14.5 | 0.00 | 0.00 | 0.00 | 63 | 1015.2 |
| 20260505024957 | 17 | 146 | 8.0 | 19.3 | 0.00 | 0.00 | 0.00 | 61 | 1015.1 |
| 20260505024000 | 17 | 203 | 4.8 | 14.5 | 0.00 | 0.00 | 0.00 | 59 | 1015.0 |
| 20260505022957 | 17 | 122 | 1.6 | 4.8 | 0.00 | 0.00 | 0.00 | 56 | 1015.1 |
| 20260505022000 | 17 | 122 | 1.6 | 4.8 | 0.00 | 0.00 | 0.00 | 56 | 1015.1 |
| 20260505020003 | 17 | 119 | 0.0 | 3.2 | 0.00 | 0.00 | 0.00 | 55 | 1015.0 |
| 20260505014957 | 18 | 102 | 0.0 | 1.6 | 0.00 | 0.00 | 0.00 | 55 | 1015.2 |
| 20260505014000 | 18 | 101 | 1.6 | 3.2 | 0.00 | 0.00 | 0.00 | 54 | 1015.2 |
| 20260505012957 | 18 | 101 | 1.6 | 4.8 | 0.00 | 0.00 | 0.00 | 54 | 1015.3 |
| 20260505011959 | 18 | 101 | 0.0 | 1.6 | 0.00 | 0.00 | 0.00 | 53 | 1015.4 |
| 20260505010957 | 18 | 100 | 1.6 | 9.7 | 0.00 | 0.00 | 0.00 | 53 | 1015.3 |
| 20260505010002 | 18 | 114 | 4.8 | 16.1 | 0.00 | 0.00 | 0.00 | 53 | 1015.4 |
| 20260505004957 | 18 | 105 | 1.6 | 9.7 | 0.00 | 0.00 | 0.00 | 53 | 1015.5 |
| 20260505004000 | 18 | 109 | 3.2 | 9.7 | 0.00 | 0.00 | 0.00 | 53 | 1015.5 |
| 20260505002957 | 18 | 104 | 3.2 | 17.7 | 0.00 | 0.00 | 0.00 | 53 | 1015.5 |
| 20260505001959 | 18 | 138 | 1.6 | 9.7 | 0.00 | 0.00 | 0.00 | 53 | 1015.7 |
| 20260505000957 | 18 | 116 | 3.2 | 9.7 | 0.00 | 0.00 | 0.00 | 52 | 1015.9 |
| 20260504234957 | 18 | 128 | 4.8 | 14.5 | 0.00 | 0.00 | 0.00 | 51 | 1016.1 |
| 20260504232957 | 17 | 144 | 1.6 | 6.4 | 0.00 | 0.00 | 0.00 | 58 | 1016.3 |
| 20260504232000 | 17 | 144 | 0.0 | 0.0 | 0.00 | 0.00 | 0.00 | 62 | 1016.5 |
| 20260504230957 | 17 | 144 | 0.0 | 0.0 | 0.00 | 0.00 | 0.00 | 62 | 1016.5 |
| 20260504230005 | 17 | 144 | 0.0 | 0.0 | 0.00 | 0.00 | 0.00 | 62 | 1016.6 |
| 20260504225000 | 17 | 144 | 0.0 | 4.8 | 0.00 | 0.00 | 0.00 | 61 | 1016.8 |
| 20260504224003 | 17 | 144 | 0.0 | 1.6 | 0.00 | 0.00 | 0.00 | 60 | 1016.8 |
| 20260504223000 | 17 | 144 | 0.0 | 1.6 | 0.00 | 0.00 | 0.00 | 60 | 1016.8 |
| 20260504222002 | 17 | 144 | 1.6 | 3.2 | 0.00 | 0.00 | 0.00 | 59 | 1016.9 |
| 20260504221000 | 17 | 144 | 1.6 | 3.2 | 0.00 | 0.00 | 0.00 | 60 | 1017.0 |
| 20260504220007 | 17 | 144 | 0.0 | 3.2 | 0.00 | 0.00 | 0.00 | 60 | 1017.0 |
| 20260504215000 | 17 | 144 | 0.0 | 0.0 | 0.00 | 0.00 | 0.00 | 61 | 1016.9 |
| 20260504214002 | 17 | 144 | 0.0 | 0.0 | 0.00 | 0.00 | 0.00 | 60 | 1017.0 |
| 20260504213000 | 17 | 144 | 0.0 | 0.0 | 0.00 | 0.00 | 0.00 | 60 | 1017.1 |
| 20260504210006 | 17 | 144 | 1.6 | 8.0 | 0.00 | 0.00 | 0.00 | 60 | 1017.1 |
| 20260504205000 | 18 | 144 | 3.2 | 6.4 | 0.00 | 0.00 | 0.00 | 59 | 1017.1 |
| 20260504204002 | 18 | 144 | 1.6 | 3.2 | 0.00 | 0.00 | 0.00 | 57 | 1017.1 |
| 20260504203000 | 18 | 144 | 1.6 | 4.8 | 0.00 | 0.00 | 0.00 | 56 | 1017.1 |
| 20260504202002 | 18 | 144 | 1.6 | 3.2 | 0.00 | 0.00 | 0.00 | 55 | 1017.0 |
| 20260504200004 | 18 | 144 | 1.6 | 3.2 | 0.00 | 0.00 | 0.00 | 53 | 1016.7 |
| 20260504194959 | 19 | 144 | 1.6 | 4.8 | 0.00 | 0.00 | 0.00 | 53 | 1016.6 |
| 20260504194001 | 19 | 144 | 1.6 | 4.8 | 0.00 | 0.00 | 0.00 | 52 | 1016.6 |
| 20260504192959 | 19 | 144 | 1.6 | 6.4 | 0.00 | 0.00 | 0.00 | 51 | 1016.4 |
| 20260504192001 | 20 | 144 | 1.6 | 8.0 | 0.00 | 0.00 | 0.00 | 50 | 1016.5 |
| 20260504190959 | 20 | 127 | 1.6 | 6.4 | 0.00 | 0.00 | 0.00 | 49 | 1016.4 |
| 20260504190004 | 20 | 126 | 1.6 | 4.8 | 0.00 | 0.00 | 0.00 | 49 | 1016.2 |
| 20260504184958 | 20 | 126 | 1.6 | 6.4 | 0.00 | 0.00 | 0.00 | 49 | 1016.1 |
| 20260504182958 | 21 | 144 | 0.0 | 3.2 | 0.00 | 0.00 | 0.00 | 49 | 1016.0 |
| 20260504180959 | 21 | 153 | 0.0 | 3.2 | 0.00 | 0.00 | 0.00 | 54 | 1016.0 |
| 20260504180005 | 21 | 153 | 0.0 | 1.6 | 0.00 | 0.00 | 0.00 | 55 | 1016.0 |
| 20260504174958 | 21 | 151 | 0.0 | 3.2 | 0.00 | 0.00 | 0.00 | 54 | 1016.1 |
| 20260504174002 | 21 | 156 | 0.0 | 4.8 | 0.00 | 0.00 | 0.00 | 54 | 1015.9 |
| 20260504172959 | 21 | 185 | 0.0 | 1.6 | 0.00 | 0.00 | 0.00 | 53 | 1015.8 |
| 20260504170958 | 21 | 185 | 0.0 | 3.2 | 0.00 | 0.00 | 0.00 | 55 | 1015.9 |
| 20260504150959 | 21 | 49 | 4.8 | 16.1 | 0.00 | 0.00 | 0.00 | 60 | 1016.5 |
| 20260504140959 | 21 | 23 | 6.4 | 20.9 | 0.00 | 0.00 | 0.00 | 66 | 1016.7 |
| 20260504082000 | 20 | 24 | 3.2 | 8.0 | 0.00 | 0.00 | 0.00 | 56 | 1018.5 |
| 20260504080958 | 20 | 35 | 1.6 | 4.8 | 0.00 | 0.00 | 0.00 | 57 | 1018.4 |
| 20260504050003 | 12 | 34 | 0.0 | 0.0 | 0.00 | 0.00 | 0.00 | 78 | 1017.5 |